Perryton, Texas, United States (79070)
Lat: 36.40N, Lon: 100.8W
Wx Zone: TXZ004
Local Info
Past Weather Observations for Today

NOTE: This archive is for the closest National Weather Service station to Perryton. Information may differ from the station used for current weather conditions.

Click here for Long-term Archive

Time Weather Temperature Dewpoint Humidity Pressure Winds Precip Visibility
21:55
Clear
48°F / 9°C 25°F / -4°C 40% 29.71 in
(1006 mb)
SW 5.8 mph
(SW 9 kph)
-
21:35
Clear
50°F / 10°C 25°F / -4°C 37% 29.68 in
(1005 mb)
SW 11.5 mph
(SW 19 kph)
-
21:15
Clear
50°F / 10°C 23°F / -5°C 35% 29.68 in
(1005 mb)
SW 10.4 mph
(SW 17 kph)
-
20:55
Clear
52°F / 11°C 23°F / -5°C 32% 29.68 in
(1005 mb)
S 15 mph
(S 24 kph)
-
20:35
Clear
52°F / 11°C 21°F / -6°C 30% 29.68 in
(1005 mb)
S 16.1 mph
(S 26 kph)
-
20:15
Clear
52°F / 11°C 21°F / -6°C 30% 29.68 in
(1005 mb)
SW 12.7 mph
(SW 20 kph)
-
19:55
Clear
52°F / 11°C 21°F / -6°C 30% 29.68 in
(1005 mb)
S 17.3 mph
(S 28 kph)
-
19:35
Clear
54°F / 12°C 21°F / -6°C 28% 29.68 in
(1005 mb)
SSE 16.1 mph
(SSE 26 kph)
-
19:15
Clear
54°F / 12°C 21°F / -6°C 28% 29.68 in
(1005 mb)
SSE 16.1 mph
(SSE 26 kph)
-
18:55
Clear
54°F / 12°C 21°F / -6°C 28% 29.68 in
(1005 mb)
SSE 13.8 mph
(SSE 22 kph)
-
18:35
Clear
55°F / 13°C 21°F / -6°C 26% 29.65 in
(1004 mb)
SSE 18.4 mph
(SSE 30 kph)
-
18:15
Clear
55°F / 13°C 21°F / -6°C 26% 29.65 in
(1004 mb)
SSE 13.8 mph
(SSE 22 kph)
-
17:55
Clear
54°F / 12°C 23°F / -5°C 30% 29.65 in
(1004 mb)
S 11.5 mph
(S 19 kph)
-
17:35
Partly Cloudy
55°F / 13°C 21°F / -6°C 26% 29.65 in
(1004 mb)
SSE 8.1 mph
(SSE 13 kph)
-
17:15
Mostly Cloudy
57°F / 14°C 21°F / -6°C 25% 29.65 in
(1004 mb)
SW 11.5 mph
(SW 19 kph)
-
16:55
Partly Cloudy
57°F / 14°C 21°F / -6°C 25% 29.62 in
(1003 mb)
SW 12.7 mph
(SW 20 kph)
-
16:35
Clear
57°F / 14°C 21°F / -6°C 25% 29.62 in
(1003 mb)
SW 13.8 mph
(SW 22 kph)
- 10SM
16:15
Clear
57°F / 14°C 21°F / -6°C 25% 29.62 in
(1003 mb)
SSE 17.3 mph
(SSE 28 kph)
-
15:55
Clear
59°F / 15°C 18°F / -8°C 20% 29.62 in
(1003 mb)
SSE 18.4 mph
(SSE 30 kph)
-
15:35
Clear
61°F / 16°C 19°F / -7°C 20% 29.59 in
(1002 mb)
SSE 18.4 mph
(SSE 30 kph)
-
15:15
Clear
63°F / 17°C 14°F / -10°C 15% 29.59 in
(1002 mb)
SW 20.7 mph
(SW 33 kph)
-
14:55
Clear
64°F / 18°C 14°F / -10°C 14% 29.59 in
(1002 mb)
SSE 20.7 mph
(SSE 33 kph)
- 10SM
14:35
Clear
61°F / 16°C 14°F / -10°C 16% 29.59 in
(1002 mb)
SW 20.7 mph
(SW 33 kph)
- 10SM
14:15
Clear
61°F / 16°C 16°F / -9°C 17% 29.59 in
(1002 mb)
SW 17.3 mph
(SW 28 kph)
- 10SM
13:55
Clear
59°F / 15°C 19°F / -7°C 21% 29.59 in
(1002 mb)
SW 17.3 mph
(SW 28 kph)
-
13:35
Clear
57°F / 14°C 19°F / -7°C 23% 29.59 in
(1002 mb)
SW 17.3 mph
(SW 28 kph)
-
13:15
Clear
57°F / 14°C 18°F / -8°C 21% 29.62 in
(1003 mb)
S 12.7 mph
(S 20 kph)
-
12:55
Clear
57°F / 14°C 18°F / -8°C 21% 29.62 in
(1003 mb)
SW 18.4 mph
(SW 30 kph)
- 10SM
12:35
Clear
57°F / 14°C 18°F / -8°C 21% 29.62 in
(1003 mb)
SW 17.3 mph
(SW 28 kph)
- 10SM
12:15
Clear
55°F / 13°C 18°F / -8°C 23% 29.62 in
(1003 mb)
SW 19.6 mph
(SW 32 kph)
- 10SM
11:55
Clear
57°F / 14°C 18°F / -8°C 21% 29.62 in
(1003 mb)
SW 16.1 mph
(SW 26 kph)
- 10SM
11:35
Clear
57°F / 14°C 19°F / -7°C 23% 29.62 in
(1003 mb)
SW 15 mph
(SW 24 kph)
- 10SM
11:15
Clear
55°F / 13°C 19°F / -7°C 24% 29.62 in
(1003 mb)
SSE 13.8 mph
(SSE 22 kph)
-
10:55
Clear
52°F / 11°C 19°F / -7°C 28% 29.65 in
(1004 mb)
SW 12.7 mph
(SW 20 kph)
-
10:35
Clear
50°F / 10°C 19°F / -7°C 30% 29.62 in
(1003 mb)
SW 17.3 mph
(SW 28 kph)
-
10:15
Clear
50°F / 10°C 19°F / -7°C 30% 29.62 in
(1003 mb)
SW 17.3 mph
(SW 28 kph)
-
09:55
Clear
46°F / 8°C 19°F / -7°C 34% 29.62 in
(1003 mb)
SW 12.7 mph
(SW 20 kph)
-
09:35
Clear
45°F / 7°C 19°F / -7°C 37% 29.62 in
(1003 mb)
SW 10.4 mph
(SW 17 kph)
-
09:15
Clear
43°F / 6°C 21°F / -6°C 42% 29.62 in
(1003 mb)
SW 9.2 mph
(SW 15 kph)
-
08:55
Clear
43°F / 6°C 21°F / -6°C 42% 29.62 in
(1003 mb)
S 5.8 mph
(S 9 kph)
-
08:35
Clear
41°F / 5°C 21°F / -6°C 45% 29.62 in
(1003 mb)
S 9.2 mph
(S 15 kph)
-
08:15
Clear
41°F / 5°C 21°F / -6°C 45% 29.62 in
(1003 mb)
SSE 11.5 mph
(SSE 19 kph)
-
07:55
Clear
39°F / 4°C 21°F / -6°C 48% 29.62 in
(1003 mb)
S 5.8 mph
(S 9 kph)
-
07:35
Clear
41°F / 5°C 21°F / -6°C 45% 29.62 in
(1003 mb)
S 4.6 mph
(S 7 kph)
-
07:15
Clear
41°F / 5°C 21°F / -6°C 45% 29.62 in
(1003 mb)
SSE 3.5 mph
(SSE 6 kph)
-
06:55
Clear
41°F / 5°C 21°F / -6°C 45% 29.62 in
(1003 mb)
S 10.4 mph
(S 17 kph)
-
06:35
Clear
41°F / 5°C 21°F / -6°C 45% 29.62 in
(1003 mb)
S 10.4 mph
(S 17 kph)
-
06:15
Clear
41°F / 5°C 21°F / -6°C 45% 29.59 in
(1002 mb)
SSE 12.7 mph
(SSE 20 kph)
-
05:55
Clear
43°F / 6°C 21°F / -6°C 42% 29.59 in
(1002 mb)
SSE 16.1 mph
(SSE 26 kph)
-
05:35
Clear
41°F / 5°C 21°F / -6°C 45% 29.59 in
(1002 mb)
SSE 18.4 mph
(SSE 30 kph)
-
05:15
Clear
41°F / 5°C 21°F / -6°C 45% 29.59 in
(1002 mb)
SSE 13.8 mph
(SSE 22 kph)
-
04:55
Clear
41°F / 5°C 21°F / -6°C 45% 29.62 in
(1003 mb)
SSE 10.4 mph
(SSE 17 kph)
-
04:35
Clear
41°F / 5°C 21°F / -6°C 45% 29.62 in
(1003 mb)
SW 11.5 mph
(SW 19 kph)
-
04:15
Clear
39°F / 4°C 21°F / -6°C 48% 29.62 in
(1003 mb)
SSE 15 mph
(SSE 24 kph)
-
03:55
Clear
39°F / 4°C 21°F / -6°C 48% 29.62 in
(1003 mb)
SSE 12.7 mph
(SSE 20 kph)
-
03:35
Clear
39°F / 4°C 21°F / -6°C 48% 29.62 in
(1003 mb)
SSE 15 mph
(SSE 24 kph)
-
03:15
Clear
39°F / 4°C 21°F / -6°C 48% 29.65 in
(1004 mb)
SSE 13.8 mph
(SSE 22 kph)
-
02:55
Clear
41°F / 5°C 21°F / -6°C 45% 29.65 in
(1004 mb)
SSE 12.7 mph
(SSE 20 kph)
-
02:35
Clear
39°F / 4°C 21°F / -6°C 48% 29.65 in
(1004 mb)
SSE 12.7 mph
(SSE 20 kph)
- 10SM
02:15
Clear
39°F / 4°C 21°F / -6°C 48% 29.68 in
(1005 mb)
S 9.2 mph
(S 15 kph)
- 10SM
01:55
Clear
39°F / 4°C 21°F / -6°C 48% 29.68 in
(1005 mb)
S 10.4 mph
(S 17 kph)
- 10SM
01:35
Clear
41°F / 5°C 21°F / -6°C 45% 29.68 in
(1005 mb)
SW 11.5 mph
(SW 19 kph)
- 10SM
01:15
Clear
39°F / 4°C 21°F / -6°C 48% 29.68 in
(1005 mb)
SW 10.4 mph
(SW 17 kph)
- 10SM
00:55
Clear
39°F / 4°C 21°F / -6°C 48% 29.71 in
(1006 mb)
SSE 5.8 mph
(SSE 9 kph)
-
00:35
Clear
37°F / 3°C 19°F / -7°C 48% 29.71 in
(1006 mb)
SSW 4.6 mph
(SSW 7 kph)
-
00:15
Clear
37°F / 3°C 19°F / -7°C 48% 29.71 in
(1006 mb)
SSE 3.5 mph
(SSE 6 kph)
-
Time Weather Temperature Dewpoint Humidity Pressure Winds Precip Visibility


Weather for websites

WeatherForYou.com, LLC is not responsible for any damages or problems caused by this service. Current weather conditions are obtained from the closest station including government and personal stations which may have varying degrees of accuracy. Weather forecasts are derived from the NOAA NDFD. Like all things, this site belongs to Jesus Christ... He just trusts me to maintain it. If you have any questions or comments email webmaster@weatherforyou.com

Copyright © 2014, WeatherForYou.com LLC. All rights reserved.